Location: Byhalia Creek
(34.8270°N, 89.8040°W)
Time: 16:30:14
(UTC+00:00)

H-2A R/B - Pass Details

Date: 22 April 2026
Orbit: 549 x 612 km, 98.5° (Epoch: 9 May)

Event Time Altitude Azimuth Distance (km) Brightness Sun altitude
Rises 10:44:38 0° 353° (N) 2,751 5.6 -7.5°
Reaches altitude 10° 10:47:21 10° 334° (NNW) 1,842 4.4 -7.0°
Maximum altitude 10:49:58 17° 292° (WNW) 1,428 3.5 -6.4°
Drops below altitude 10° 10:52:33 10° 251° (WSW) 1,822 3.8 -5.9°
Enters shadow 10:53:25 - 242° (WSW) 2,078 4.1 -5.8°
